Vertical_Velocity
-0 1 0 -1 3 -3 -5 -10 -16 -10 -11 -6 -5 10 6 14 18 28 -0 -5 -5 -5 -3 -2 -3 0 -1 -1 -2 -0 0 -1 -3 -1 -6 1 -2 -0 0 -1 -2 -1 -2 -1 -1 -3 -0 -1 1
-1 1 1 0 2 11 -12 -14 -7 -6 2 -7 -3 -7 -5 -9 -10 -8 -3 -5 -7 -8 -5 -0 -2 -1 -2 -2 -1 -1 -2 -1 -1 -3 -2 -4 -0 0 -0 1 1 3 1 5 -3 1 1 -0 -2
1 1 2 0 -2 -5 -2 22 -2 21 1 -2 -3 -6 10 10 -4 2 -5 -5 -5 -5 -4 -4 -3 -3 -3 -2 -0 0 -2 -3 -1 -0 -3 -3 -1 4 -0 -2 -1 0 1 10 7 12 7 -1 -0
1 2 -4 -2 -2 -7 -4 36 -19 -1 -2 -0 -4 8 -5 -3 -1 5 -3 -5 -3 -6 -1 -6 -2 -4 -3 -1 0 -1 -2 0 -2 -2 -1 -0 1 -2 -2 -1 0 1 2 -1 -2 -1 1 0 3
4 7 2 9 -14 -17 25 -9 8 5 18 10 -0 11 -3 -4 2 1 -2 -3 -3 -4 -1 -3 -1 -2 -2 -1 -1 -2 -3 -2 1 -4 -2 0 -3 -1 2 7 -0 2 -8 -3 0 -9 -5 -1 1
1 1 7 2 -9 -6 -5 14 -2 -7 13 1 -1 -3 4 10 2 -0 -1 -2 -3 -3 -3 -1 -1 -2 -1 -2 -1 -3 -2 -1 -3 -0 -2 8 -0 -6 -0 2 2 7 -1 -2 -0 2 -9 -1 -3
-2 10 -8 -1 -2 10 14 -18 2 -4 1 1 0 1 -2 -6 -1 -7 0 -2 -2 -2 -3 -2 -1 0 -2 -3 -2 -3 -3 -2 0 -2 -4 -2 -1 2 0 1 3 0 2 -2 3 -3 0 -3 7
1 5 2 0 -6 -14 16 -1 -13 -0 -8 11 -10 -6 -4 14 -8 -1 -2 -2 -0 -2 -2 -2 -2 -3 1 -4 -1 -2 -1 0 -2 1 0 -4 2 1 2 -3 1 0 2 -5 2 2 -7 5 16
1 9 -4 -10 5 -14 1 -6 -4 -2 9 -12 2 -1 3 -10 -3 7 -4 -1 -1 -1 -0 -3 -1 1 -1 -2 1 -1 -1 -1 0 1 1 1 -1 -1 0 -1 1 1 -1 -2 4 1 -4 8 3
3 -4 -5 4 5 17 -17 -9 17 -7 -9 14 -8 -3 -4 -2 -5 3 -7 -1 -1 -3 -1 -1 -4 -0 1 -2 3 -2 -0 0 -3 1 1 3 -1 -0 2 -0 3 0 1 -0 2 -4 3 -2 -1
0 -21 4 -2 -12 6 2 4 3 4 -3 19 -5 7 -1 -2 -2 -2 0 -3 -3 -3 -3 1 -2 -3 2 1 -3 -3 -3 0 -0 -1 1 5 0 -1 -0 -0 -0 -1 1 4 -1 -2 1 1 2
-4 4 -1 -11 22 -2 -10 6 -4 11 -6 -3 2 29 -2 -4 0 -3 -3 -1 -1 -4 -2 0 -3 -3 0 -2 0 -0 -1 -1 0 -1 -0 1 2 4 0 0 3 1 3 1 -0 1 3 25 -2
2 2 5 3 -0 12 -4 -2 -1 -3 1 -2 -12 -4 1 -2 -1 -3 -1 -1 5 -2 -0 1 -1 -3 0 3 -3 -1 1 -0 2 -0 1 1 -1 -1 -0 -0 4 2 1 1 1 -1 0 1 8
15 6 -6 -3 17 -13 0 -4 9 5 -3 -1 -11 -2 -0 -6 -4 2 1 -7 2 3 -3 -2 4 -1 -4 2 0 -2 -2 -1 -2 2 1 1 -1 3 2 0 -0 -1 1 -0 2 1 3 -9 -6
-3 -3 14 -8 -12 3 2 -6 -16 -2 -4 2 -10 -2 -0 -4 0 -7 1 2 -3 7 7 -8 -0 -1 -3 -1 -3 -1 -6 -0 -1 1 -4 3 -3 -1 1 -1 -2 1 3 -1 1 -1 8 -4 60
2 10 8 4 -4 -9 1 -17 2 7 5 2 -8 1 2 0 -2 -4 -1 -1 -1 2 8 -6 -0 -3 -0 -2 -5 -1 -4 -5 -1 -2 -3 4 -2 -0 -1 -1 0 3 1 1 0 -0 -2 34 0
1 -5 -0 -6 5 4 6 5 -4 -20 11 -7 -7 -1 6 -2 2 -2 -2 -7 -2 2 3 -1 -3 1 0 -2 -2 0 -2 0 -4 -2 -2 4 -1 1 -0 0 0 2 0 -2 2 1 -4 -1 5
-3 5 -6 4 -6 22 -3 1 -17 -10 -10 -2 -4 5 1 4 -4 1 -2 0 0 3 6 2 -8 -3 -3 1 -2 -4 -4 -1 -0 0 -3 2 1 -0 0 1 -0 1 3 -3 0 0 1 2 4
2 23 13 -6 -23 16 12 1 -1 6 9 10 -8 -2 -0 -7 2 8 -1 4 10 5 2 -7 -9 -0 -1 1 -3 -6 -5 1 -2 1 -2 1 1 -4 1 0 4 0 0 -5 2 -2 14 12 -2
4 4 -7 -9 5 -6 -8 -7 -9 -6 -8 -7 -3 -3 -2 4 5 3 10 10 2 3 -2 -1 3 0 -3 1 6 -0 -8 1 -1 -2 -0 1 -0 -2 -1 -3 1 2 -0 -1 -0 -7 11 22 34
-6 -4 -8 4 8 12 1 -11 -13 -20 1 -12 1 3 4 5 8 14 11 -3 2 14 3 3 0 0 0 2 5 -4 -2 -7 -2 -0 -1 0 0 -4 -1 -1 0 -1 -4 -1 -5 5 -8 18 -0
7 -7 -1 5 11 -4 19 -18 18 -7 4 3 9 5 4 9 9 5 -2 -3 8 2 15 -3 3 1 -1 -3 -0 -3 1 -0 2 -3 -2 1 -0 -2 -1 1 -2 5 -2 -9 -9 -1 2 31 3
-23 2 3 5 -0 14 -7 13 -42 -6 -1 -2 8 -5 -4 -1 -1 -3 -6 -5 -5 1 4 3 -1 2 0 -4 4 -2 2 -1 -2 -5 -1 1 0 -5 1 1 -1 1 -5 1 -6 -0 -5 15 -8
-11 14 -0 -3 5 15 -13 16 -3 8 18 3 -3 -2 -2 4 -1 1 2 -2 -7 -0 -3 11 -4 -4 1 -1 5 -6 5 1 -3 -3 -3 3 3 -3 -2 -0 0 1 1 -4 1 -4 1 -2 3
17 12 6 13 16 -11 14 18 -6 -14 -6 -3 -5 3 4 8 3 1 -6 3 3 1 0 7 -14 0 4 -1 5 -1 5 -1 -1 -2 -5 -2 2 -2 0 -1 -0 1 6 1 9 6 -1 -5 1
-7 -0 -5 -4 -1 -11 1 -5 18 12 -12 -3 11 -12 -10 2 -1 -2 -2 -8 2 4 6 4 -4 7 6 -0 4 3 2 -2 0 -1 -2 -1 -0 0 0 -0 -1 -1 -2 -1 -1 8 -7 8 2
-7 5 -13 5 -2 4 -6 18 -8 -5 12 -4 -3 3 15 -3 -3 -4 2 2 -17 5 1 12 1 12 2 1 9 2 -2 1 -1 -0 -2 -1 -5 1 1 -1 -2 1 0 -2 3 -2 -1 -6 17
12 3 1 0 2 0 -0 3 6 3 9 11 -8 14 -7 -1 -1 -1 -3 -0 10 -7 15 -1 4 10 -13 10 12 2 2 2 -1 -2 0 -2 -1 -1 -1 -1 -0 -3 -0 -0 -0 -0 1 8 -8
-2 19 -3 5 -2 3 1 13 3 1 -2 -4 15 -5 -2 -3 -4 -2 -0 2 5 -15 8 1 8 -4 -1 12 6 0 6 -1 -1 -2 1 -1 -1 -1 -1 -1 1 -1 -0 -0 -1 1 2 0 5
-12 3 -4 4 1 0 2 11 -7 -8 1 2 -4 -12 -2 -1 0 -1 -1 3 4 5 6 7 9 -3 7 10 10 12 3 3 -1 -2 3 -1 -0 -1 -1 1 -2 -1 -2 -1 -1 -0 -2 -3 -5
Height
3135 3137 3139 3141 3148 3140 3132 3130 3130 3131 3131 3131 3132 3135 3136 3137 3138 3140 3135 3135 3135 3134 3132 3132 3133 3134 3134 3134 3134 3135 3135 3136 3137 3138 3138 3139 3140 3142 3143 3144 3145 3146 3148 3148 3149 3150 3151 3152 3153
3132 3134 3137 3140 3140 3132 3126 3126 3128 3130 3129 3127 3129 3130 3133 3136 3134 3132 3133 3133 3134 3133 3132 3132 3132 3132 3131 3132 3132 3133 3134 3134 3135 3136 3137 3138 3139 3141 3142 3142 3144 3146 3146 3147 3148 3150 3150 3152 3153
3129 3132 3137 3136 3132 3126 3123 3122 3126 3127 3127 3126 3128 3130 3133 3135 3132 3132 3130 3131 3131 3131 3130 3131 3129 3130 3130 3130 3131 3132 3132 3133 3133 3134 3136 3137 3138 3139 3139 3141 3142 3144 3146 3146 3147 3148 3150 3152 3153
3126 3129 3132 3128 3123 3122 3123 3123 3125 3125 3125 3125 3128 3130 3129 3129 3129 3130 3128 3129 3129 3129 3129 3128 3128 3128 3129 3129 3129 3130 3130 3131 3132 3133 3134 3135 3136 3137 3139 3141 3142 3143 3145 3146 3147 3147 3149 3150 3151
3123 3127 3126 3120 3119 3120 3121 3122 3122 3123 3123 3124 3125 3127 3128 3125 3126 3127 3126 3127 3127 3128 3128 3127 3127 3127 3128 3127 3128 3128 3129 3129 3129 3131 3132 3133 3134 3136 3137 3139 3141 3142 3143 3145 3147 3147 3147 3149 3150
3119 3122 3119 3113 3114 3116 3118 3118 3120 3120 3122 3122 3122 3124 3127 3125 3123 3123 3124 3124 3125 3126 3126 3126 3126 3126 3126 3126 3126 3126 3127 3127 3127 3128 3130 3130 3132 3134 3135 3136 3138 3140 3141 3141 3143 3144 3143 3147 3148
3114 3118 3111 3110 3110 3111 3113 3113 3115 3117 3119 3120 3120 3121 3124 3123 3120 3119 3121 3122 3123 3124 3124 3125 3125 3125 3125 3125 3124 3124 3125 3125 3125 3125 3127 3128 3130 3131 3132 3134 3136 3137 3139 3139 3138 3141 3140 3142 3144
3110 3113 3107 3105 3107 3106 3111 3109 3110 3112 3115 3114 3116 3118 3121 3115 3116 3117 3118 3120 3120 3121 3122 3123 3123 3123 3123 3123 3123 3122 3122 3122 3122 3122 3123 3125 3126 3128 3129 3131 3133 3134 3135 3136 3136 3136 3136 3134 3138
3106 3105 3095 3099 3104 3105 3105 3104 3106 3108 3110 3109 3112 3115 3110 3109 3113 3115 3115 3117 3117 3118 3119 3120 3121 3121 3121 3121 3121 3120 3120 3120 3119 3119 3119 3120 3121 3123 3124 3127 3129 3130 3131 3132 3133 3132 3131 3130 3134
3096 3093 3088 3099 3100 3100 3100 3099 3103 3103 3103 3105 3106 3105 3106 3107 3108 3111 3112 3113 3114 3114 3116 3117 3118 3118 3118 3118 3118 3118 3118 3117 3116 3115 3114 3116 3117 3120 3121 3123 3125 3126 3126 3127 3128 3127 3128 3129 3129
3087 3075 3090 3092 3095 3096 3096 3097 3098 3098 3098 3102 3103 3104 3103 3103 3104 3106 3108 3109 3111 3111 3111 3113 3114 3114 3115 3115 3115 3115 3114 3114 3113 3112 3111 3111 3112 3115 3116 3118 3120 3120 3122 3122 3122 3123 3123 3125 3123
3080 3079 3083 3086 3090 3088 3088 3091 3090 3092 3094 3097 3099 3101 3100 3100 3101 3101 3103 3106 3107 3106 3107 3109 3110 3111 3111 3111 3112 3112 3112 3111 3110 3109 3108 3108 3109 3110 3112 3113 3115 3116 3117 3118 3117 3119 3120 3118 3121
3068 3074 3077 3080 3081 3082 3083 3081 3082 3082 3087 3089 3090 3091 3093 3094 3096 3097 3099 3101 3104 3103 3103 3105 3105 3107 3108 3109 3109 3109 3109 3109 3108 3107 3105 3105 3107 3107 3108 3109 3110 3111 3112 3113 3113 3115 3116 3114 3114
3069 3069 3069 3071 3073 3074 3075 3073 3074 3075 3079 3080 3081 3083 3085 3086 3089 3092 3094 3095 3098 3100 3099 3100 3102 3103 3104 3106 3106 3106 3106 3105 3105 3104 3103 3102 3103 3104 3104 3104 3105 3106 3107 3108 3109 3111 3113 3113 3113
3060 3061 3060 3060 3064 3067 3071 3061 3060 3069 3071 3072 3072 3074 3076 3078 3082 3085 3088 3091 3092 3095 3095 3094 3097 3099 3100 3102 3102 3102 3101 3102 3102 3101 3100 3099 3099 3099 3100 3100 3101 3102 3102 3103 3105 3106 3108 3108 3102
3053 3055 3049 3052 3058 3060 3064 3043 3059 3063 3063 3063 3065 3066 3069 3071 3073 3077 3081 3084 3088 3090 3091 3087 3091 3094 3095 3096 3098 3098 3097 3097 3098 3096 3096 3095 3095 3095 3095 3096 3096 3097 3098 3099 3100 3101 3103 3102 3106
3044 3039 3041 3047 3049 3052 3052 3046 3053 3055 3057 3056 3058 3060 3062 3064 3065 3068 3072 3076 3080 3084 3084 3081 3085 3088 3090 3091 3093 3094 3093 3093 3093 3092 3092 3091 3090 3090 3090 3091 3092 3092 3093 3094 3095 3095 3098 3099 3103
3029 3035 3035 3036 3039 3042 3043 3042 3047 3048 3049 3050 3052 3055 3056 3058 3060 3062 3064 3069 3073 3075 3076 3075 3078 3082 3084 3086 3087 3088 3089 3089 3089 3088 3088 3086 3086 3085 3085 3085 3086 3087 3088 3089 3089 3088 3090 3093 3099
3028 3028 3028 3030 3035 3036 3036 3038 3040 3043 3043 3043 3045 3047 3049 3051 3055 3058 3059 3061 3064 3065 3065 3067 3070 3075 3078 3082 3082 3083 3085 3085 3085 3085 3083 3082 3081 3080 3080 3080 3081 3082 3084 3085 3082 3082 3084 3089 3096
3024 3025 3025 3028 3030 3032 3033 3032 3033 3034 3034 3036 3038 3039 3041 3045 3048 3051 3054 3055 3056 3056 3056 3060 3063 3065 3071 3075 3077 3078 3080 3081 3080 3080 3079 3078 3077 3076 3075 3074 3076 3077 3079 3080 3080 3077 3080 3085 3090
3019 3022 3026 3027 3027 3028 3029 3025 3023 3022 3025 3026 3029 3032 3035 3037 3039 3042 3045 3046 3048 3049 3049 3051 3055 3059 3062 3068 3070 3072 3074 3076 3076 3076 3075 3074 3073 3071 3071 3070 3071 3072 3074 3076 3077 3077 3078 3082 3086
3014 3019 3023 3025 3025 3023 3022 3016 3013 3017 3019 3021 3023 3025 3027 3028 3029 3031 3033 3035 3038 3041 3043 3042 3047 3050 3053 3060 3062 3066 3068 3071 3072 3071 3071 3069 3068 3067 3066 3066 3066 3068 3070 3072 3074 3074 3075 3077 3082
3010 3017 3020 3022 3022 3022 3018 3019 3011 3012 3015 3016 3019 3019 3019 3020 3020 3020 3021 3023 3027 3031 3035 3035 3038 3042 3045 3051 3055 3059 3062 3065 3066 3066 3067 3065 3064 3063 3062 3062 3061 3063 3066 3068 3071 3072 3074 3077 3081
3010 3014 3017 3019 3018 3013 3010 3011 3003 3004 3010 3013 3015 3016 3016 3015 3015 3015 3015 3014 3017 3021 3023 3027 3027 3033 3037 3042 3048 3051 3056 3059 3061 3061 3062 3060 3060 3058 3058 3057 3057 3059 3061 3065 3068 3071 3074 3076 3080
3005 3007 3010 3012 3008 3003 2998 3002 3001 3001 3007 3010 3012 3014 3013 3011 3008 3005 3004 3008 3010 3010 3013 3018 3018 3025 3029 3035 3039 3043 3049 3052 3055 3057 3057 3055 3055 3054 3054 3053 3053 3054 3057 3060 3063 3066 3071 3074 3078
2998 3001 2998 2999 2995 2992 2996 2997 2996 2999 3005 3008 3010 3008 3008 3004 3000 2997 2997 2997 3002 3002 3003 3007 3011 3017 3021 3027 3032 3036 3041 3046 3050 3052 3052 3052 3051 3051 3050 3049 3048 3050 3052 3056 3059 3061 3066 3069 3073
2994 2997 2998 3000 2995 2990 2989 2992 2998 3002 3003 3004 3005 3006 3002 2999 2993 2992 2991 2990 2988 2995 2996 3000 3001 3008 3013 3017 3023 3028 3035 3039 3044 3047 3047 3048 3046 3046 3045 3045 3045 3046 3048 3051 3055 3058 3062 3064 3066
2987 2994 2997 2997 2991 2989 2979 2982 2991 2999 3001 3002 3002 3001 2995 2992 2988 2987 2985 2983 2984 2986 2992 2990 2995 3001 3003 3010 3016 3022 3029 3033 3038 3041 3042 3044 3043 3043 3042 3043 3043 3043 3045 3048 3050 3054 3057 3059 3063
2988 2989 2992 2993 2992 2984 2975 2985 2994 2997 2999 3000 3000 2994 2991 2988 2985 2982 2980 2978 2979 2979 2986 2984 2991 2993 2998 3004 3010 3017 3024 3027 3032 3036 3037 3039 3039 3039 3039 3041 3042 3042 3042 3044 3046 3048 3050 3054 3058
2986 2988 2991 2990 2992 2992 2991 2991 2993 2997 2998 2996 2992 2990 2987 2984 2982 2979 2975 2974 2975 2975 2978 2982 2986 2988 2993 2998 3005 3013 3017 3022 3026 3030 3032 3034 3036 3036 3036 3038 3040 3040 3041 3042 3044 3046 3048 3050 3052